Home > Weather > Lakewood > Past weeks

Flag for U.S.A. Weather for the Past 2 Weeks in Lakewood, Colorado, U.S.A.

Now
33 °F

Passing clouds.


Feels Like: 25 °F
Forecast: 30 / 52 °F
Wind: 10 mph from South

Location: Centennial Airport

Current Time: Feb 8, 2016 at 11:42:29 PM

Latest Report: Feb 8, 2016 at 10:53 PM


Visibility: 10 mi

Pressure: 30.37 "Hg (24.61 "Hg at 1683m altitude)

Humidity: 63%

Dew point: 22 °F

Location of LakewoodLocation

Historic Weather in Lakewood — Graph

°F

Lakewood Temperature Yesterday

Maximum temperature yesterday: 46 °F (at 12:53 AM)
Minimum temperature yesterday: 20 °F (at 7:53 PM)
Average temperature yesterday: 31 °F

High & Low Weather Summary for the Past Weeks

 TemperatureHumidityPressure
High64 °F (Jan 30, 1:53 PM)96% (Jan 30, 11:53 PM)30.53 "Hg (Jan 30, 11:53 PM)
Low2 °F (Feb 3, 5:53 AM)16% (Jan 29, 2:53 PM)29.37 "Hg (Jan 30, 1:53 PM)
Average30 °F59%30.10 "Hg
* Reported Jan 24 9:53 PM — Feb 8 9:53 PM, Lakewood, Weather by CustomWeather, © 2016

Note: Actual official high and low records may vary slightly from our data, if they occured in-between our weather recording intervals... More about our weather records

Advertising

Lakewood Weather History for the Previous 24 Hours

 ConditionsComfort  
Time TempWeatherWind HumidityBarometerVisibility
9:53 PM
Mon, Feb 8
33 °FPassing clouds.10 mph66%30.39 "Hg10 mi
8:53 PM34 °FPassing clouds.8 mph64%30.43 "Hg10 mi
7:53 PM34 °FPassing clouds.10 mph64%30.45 "Hg10 mi
6:53 PM35 °FPassing clouds.7 mph61%30.46 "Hg10 mi
5:53 PM39 °FPassing clouds.8 mph53%30.44 "Hg10 mi
4:53 PM41 °FScattered clouds.7 mph49%30.41 "Hg10 mi
3:53 PM42 °FScattered clouds.7 mph45%30.40 "Hg10 mi
2:53 PM40 °FScattered clouds.7 mph51%30.42 "Hg10 mi
1:53 PM41 °FPartly sunny.8 mph47%30.42 "Hg10 mi
12:53 PM40 °FPartly sunny.8 mph47%30.43 "Hg10 mi
11:53 AM39 °FPartly sunny.6 mph46%30.47 "Hg10 mi
10:53 AM38 °FPartly sunny.7 mph46%30.50 "Hg10 mi
9:53 AM36 °FPartly sunny.3 mph50%30.52 "Hg10 mi
8:53 AM27 °FPartly sunny.7 mph66%30.53 "Hg10 mi
7:53 AM23 °FPartly sunny.7 mph72%30.53 "Hg10 mi
6:53 AM20 °FPassing clouds.7 mph74%30.52 "Hg10 mi
5:53 AM19 °FPassing clouds.8 mph77%30.50 "Hg10 mi
4:53 AM22 °FPassing clouds.6 mph72%30.46 "Hg10 mi
3:53 AM21 °FPassing clouds.9 mph74%30.46 "Hg10 mi
2:53 AM20 °FPartly cloudy.13 mph82%30.49 "Hg10 mi
1:53 AM21 °FPassing clouds.14 mph78%30.50 "Hg10 mi
12:53 AM22 °FOvercast.12 mph72%30.50 "Hg10 mi
11:53 PM
Sun, Feb 7
20 °FPassing clouds.12 mph82%30.52 "Hg10 mi
Weather by CustomWeather, © 2016

See weather overviewHow to use our weather pages